CW1852 Weather Reports


time (UTC)temp
C
wind
direction
speed
KPH
gust
KPH
rain 1hr
cm
rain 24hr
cm
rain mn
cm
humidity
%
barometer
mb
20260508091224 3 296 1.6 3.2 0.00 0.03 0.00 79 1005.3
20260508090203 3 296 0.0 3.2 0.00 0.03 0.00 78 1005.1
20260508085202 3 296 1.6 3.2 0.00 0.03 0.00 80 1005.1
20260508084224 2 296 0.0 4.8 0.00 0.03 0.00 83 1005.0
20260508083203 2 296 0.0 3.2 0.00 0.03 0.00 82 1004.9
20260508082223 3 296 1.6 4.8 0.00 0.03 0.00 77 1005.0
20260508081203 3 296 3.2 4.8 0.00 0.03 0.00 76 1005.0
20260508080202 3 296 1.6 3.2 0.00 0.03 0.00 74 1004.9
20260508075203 3 296 1.6 3.2 0.00 0.03 0.00 73 1004.7
20260508074203 4 296 0.0 3.2 0.00 0.03 0.00 72 1004.7
20260508073203 5 296 3.2 6.4 0.00 0.03 0.00 67 1004.7
20260508072203 5 296 1.6 12.9 0.00 0.03 0.00 67 1004.7
20260508071202 6 311 3.2 12.9 0.00 0.03 0.00 64 1004.7
20260508070203 6 332 3.2 14.5 0.00 0.03 0.00 63 1004.7
20260508065203 6 331 4.8 12.9 0.00 0.03 0.00 62 1004.6
20260508064223 6 356 3.2 9.7 0.00 0.03 0.00 61 1004.7
20260508063203 7 313 4.8 16.1 0.00 0.03 0.00 60 1004.6
20260508062203 7 5 3.2 17.7 0.00 0.05 0.00 59 1004.5
20260508061202 7 334 6.4 14.5 0.00 0.05 0.00 60 1004.6
20260508060204 7 327 4.8 14.5 0.00 0.05 0.00 59 1004.8
20260508055203 7 0 4.8 14.5 0.00 0.05 0.00 60 1005.0
20260508054203 7 338 6.4 19.3 0.00 0.05 0.00 59 1004.9
20260508053203 7 299 4.8 14.5 0.00 0.05 0.00 60 1005.0
20260508052203 7 323 3.2 11.3 0.00 0.08 0.00 59 1005.2
20260508051202 7 344 6.4 16.1 0.00 0.08 0.00 61 1005.0
20260508050203 6 313 4.8 12.9 0.00 0.10 0.00 61 1005.1
20260508045224 6 317 3.2 8.0 0.00 0.13 0.00 61 1005.4
20260508044202 7 313 3.2 11.3 0.00 0.23 0.00 62 1005.5
20260508043203 7 0 3.2 9.7 0.00 0.38 0.00 61 1005.5
20260508042203 6 322 3.2 8.0 0.00 0.43 0.00 62 1005.5
20260508041203 7 316 4.8 9.7 0.00 0.46 0.00 61 1005.5
20260508040203 7 306 3.2 9.7 0.00 0.46 0.00 60 1005.5
20260508035202 7 321 3.2 14.5 0.00 0.46 0.46 58 1005.6
20260508034224 7 344 3.2 9.7 0.00 0.46 0.46 60 1005.7
20260508033202 8 14 3.2 8.0 0.00 0.46 0.46 56 1005.6
20260508032203 8 352 4.8 16.1 0.00 0.46 0.46 53 1005.6
20260508031203 8 355 3.2 12.9 0.00 0.46 0.46 55 1005.5
20260508030203 8 350 4.8 14.5 0.00 0.46 0.46 57 1005.6
20260508025203 8 328 3.2 12.9 0.00 0.46 0.46 56 1005.5
20260508024203 8 337 6.4 16.1 0.00 0.46 0.46 55 1005.3
20260508023203 8 352 3.2 16.1 0.00 0.46 0.46 56 1005.2
20260508022203 8 345 4.8 16.1 0.00 0.46 0.46 57 1005.2
20260508021202 9 317 4.8 11.3 0.00 0.46 0.46 55 1005.0
20260508020203 10 332 3.2 14.5 0.00 0.46 0.46 55 1005.0
20260508015203 10 346 6.4 17.7 0.00 0.46 0.46 52 1005.0
20260508014203 10 314 4.8 12.9 0.00 0.46 0.46 53 1004.9
20260508013202 10 345 4.8 14.5 0.00 0.46 0.46 52 1004.8
20260508012203 10 344 6.4 11.3 0.00 0.46 0.46 53 1004.9
20260508011204 10 334 3.2 14.5 0.00 0.48 0.46 55 1004.8
20260508010203 10 344 3.2 14.5 0.00 0.48 0.46 52 1004.6
20260508005203 10 345 4.8 14.5 0.00 0.51 0.46 55 1004.4
20260508004203 9 43 1.6 6.4 0.00 0.53 0.46 66 1004.2
20260508003203 10 351 3.2 6.4 0.00 0.56 0.46 60 1004.0
20260508002203 10 353 3.2 9.7 0.00 0.58 0.46 68 1003.8
20260508001203 9 306 1.6 11.3 0.00 0.61 0.46 79 1003.7
20260508000204 8 317 1.6 4.8 0.00 0.61 0.46 81 1003.7
20260507235203 8 315 0.0 3.2 0.00 0.61 0.46 77 1003.6
20260507234223 10 313 0.0 11.3 0.00 0.64 0.46 76 1003.6
20260507233203 10 207 1.6 4.8 0.00 0.66 0.46 75 1003.4
20260507232203 11 207 1.6 6.4 0.00 0.69 0.46 71 1003.1
20260507231202 12 199 3.2 12.9 0.00 0.76 0.46 64 1003.0
20260507230203 13 283 3.2 9.7 0.00 0.84 0.46 52 1002.8
20260507225202 12 312 1.6 19.3 0.00 0.89 0.46 59 1002.8
20260507224203 12 215 1.6 6.4 0.00 0.97 0.46 70 1002.5
20260507223203 12 206 3.2 9.7 0.00 1.04 0.46 68 1002.5
20260507222203 12 237 4.8 9.7 0.00 1.19 0.46 67 1002.4
20260507220203 12 181 4.8 16.1 0.00 1.52 0.46 71 1002.3
20260507215223 12 203 6.4 17.7 0.00 1.57 0.46 71 1002.4
20260507214203 12 233 6.4 17.7 0.00 1.63 0.46 71 1002.5
20260507213224 12 196 8.0 22.5 0.00 1.68 0.46 70 1002.5
20260507212204 12 194 8.0 19.3 0.00 1.70 0.46 72 1002.4
20260507211203 12 212 9.7 22.5 0.00 1.73 0.46 71 1002.4
20260507210202 12 213 8.0 19.3 0.00 1.73 0.46 70 1002.2
20260507205224 12 249 8.0 16.1 0.00 1.75 0.46 71 1002.3
20260507204225 12 249 6.4 24.1 0.00 1.78 0.46 73 1002.2
20260507203202 11 228 8.0 17.7 0.00 1.78 0.46 73 1002.2
20260507202203 12 205 9.7 27.4 0.00 1.80 0.46 72 1002.2
20260507201202 12 205 11.3 27.4 0.00 1.83 0.46 71 1002.2
20260507200224 13 218 9.7 32.2 0.00 1.83 0.46 68 1002.3
20260507195202 13 203 9.7 29.0 0.00 1.85 0.46 69 1002.4
20260507194203 14 203 8.0 33.8 0.00 1.88 0.46 68 1002.5
20260507193203 14 226 9.7 24.1 0.00 1.88 0.46 65 1002.6
20260507192204 15 206 14.5 27.4 0.00 1.88 0.46 60 1002.6
20260507191225 15 223 9.7 22.5 0.00 1.88 0.46 62 1002.7
20260507190204 15 212 9.7 19.3 0.00 1.88 0.46 62 1002.7
20260507185202 15 206 9.7 25.7 0.00 1.88 0.46 65 1002.9
20260507184203 14 222 9.7 22.5 0.00 1.88 0.46 65 1003.0
20260507183203 15 210 12.9 29.0 0.00 1.88 0.46 63 1003.0
20260507182202 15 213 9.7 24.1 0.00 1.88 0.46 63 1003.1
20260507181203 15 227 8.0 22.5 0.00 1.88 0.46 66 1003.4
20260507180202 14 229 8.0 25.7 0.00 1.88 0.46 68 1003.3
20260507175203 15 223 9.7 22.5 0.00 1.88 0.46 69 1003.4
20260507174204 14 233 11.3 32.2 0.00 1.88 0.46 69 1003.5
20260507173224 14 233 9.7 27.4 0.00 1.88 0.46 72 1003.5
20260507172203 15 197 12.9 24.1 0.00 1.88 0.46 70 1003.3
20260507171203 15 204 8.0 24.1 0.00 1.88 0.46 66 1003.4
20260507170204 15 206 11.3 25.7 0.00 1.88 0.46 63 1003.3
20260507165203 15 220 9.7 20.9 0.00 1.88 0.46 63 1003.4
20260507164202 15 204 8.0 24.1 0.00 1.88 0.46 64 1003.5
20260507163203 15 195 11.3 24.1 0.00 1.88 0.46 68 1003.7
20260507162224 15 203 11.3 20.9 0.00 1.88 0.46 67 1003.8
20260507161202 15 203 11.3 22.5 0.00 1.88 0.46 67 1003.9
20260507160203 15 198 8.0 17.7 0.00 1.88 0.46 68 1004.0
20260507155203 15 220 8.0 19.3 0.00 1.88 0.46 68 1004.1
20260507154203 15 207 9.7 19.3 0.00 1.88 0.46 71 1004.2
20260507153203 15 238 6.4 19.3 0.00 1.88 0.46 70 1004.2
20260507152224 15 212 9.7 19.3 0.00 1.88 0.46 66 1004.3
20260507151245 15 191 8.0 17.7 0.00 1.88 0.46 70 1004.2
20260507150223 15 200 6.4 11.3 0.00 1.88 0.46 70 1004.3
20260507145203 15 216 6.4 16.1 0.00 1.88 0.46 69 1004.4
20260507144202 15 293 4.8 14.5 0.00 1.88 0.46 71 1004.4
20260507143203 14 308 6.4 11.3 0.00 1.88 0.46 73 1004.4
20260507141203 13 299 6.4 12.9 0.00 1.88 0.46 75 1004.8
20260507140203 13 305 3.2 11.3 0.00 1.88 0.46 73 1004.7
20260507135203 13 339 1.6 12.9 0.00 1.88 0.46 76 1004.7
20260507134202 12 344 8.0 14.5 0.00 1.88 0.46 74 1004.7
20260507133203 11 323 6.4 12.9 0.00 1.88 0.46 75 1004.8
20260507132202 11 291 4.8 16.1 0.00 1.88 0.46 80 1004.9
20260507131224 11 300 6.4 14.5 0.00 1.88 0.46 82 1004.9
20260507130203 11 351 6.4 14.5 0.00 1.88 0.46 80 1005.1
20260507125203 10 290 8.0 17.7 0.00 1.88 0.46 83 1005.3
20260507124203 10 317 1.6 14.5 0.00 1.88 0.46 87 1005.1
20260507123202 9 310 4.8 16.1 0.00 1.88 0.46 89 1004.9
20260507122203 9 302 6.4 14.5 0.00 1.88 0.46 92 1005.0
20260507121202 8 270 4.8 19.3 0.00 1.88 0.46 92 1005.0
20260507120203 8 312 9.7 17.7 0.00 1.88 0.46 94 1004.6
20260507115245 8 316 3.2 14.5 0.00 1.88 0.46 96 1004.8
20260507114202 8 297 3.2 9.7 0.00 1.88 0.46 95 1004.9
20260507113203 8 296 3.2 8.0 0.00 1.88 0.46 95 1005.1
20260507112224 8 288 3.2 8.0 0.00 1.88 0.46 96 1005.0
20260507111202 8 334 3.2 8.0 0.00 1.88 0.46 95 1005.3
20260507110203 8 296 3.2 6.4 0.00 1.88 0.46 96 1005.0
20260507105224 8 296 3.2 6.4 0.00 1.88 0.46 96 1005.7
20260507104202 8 296 3.2 4.8 0.00 1.88 0.46 96 1006.0
20260507103203 8 296 1.6 12.9 0.00 1.88 0.46 96 1005.3
20260507102203 8 290 1.6 8.0 0.00 1.88 0.46 96 1005.2
20260507101224 8 285 3.2 8.0 0.00 1.88 0.46 96 1005.3
20260507100203 8 310 4.8 9.7 0.00 1.88 0.46 96 1004.6
20260507095203 8 273 4.8 9.7 0.03 1.88 0.46 96 1004.8
20260507094202 8 295 3.2 9.7 0.03 1.88 0.46 96 1004.6
20260507093203 8 312 4.8 11.3 0.03 1.88 0.46 96 1004.4
20260507092203 8 283 4.8 11.3 0.00 1.85 0.43 96 1004.6